Time,TemperatureF,DewpointF,PressureIn,WindDirection,WindDirectionDegrees,WindSpeedMPH,WindSpeedGustMPH,Humidity,HourlyPrecipIn,Conditions,Clouds,dailyrainin,SoftwareType,DateUTC
2013-02-14 00:00:00,63.5,61.1,29.96,South,183,2.0,2.0,92,0.00,,,0.14,Wunderground v.1.15,2013-02-14 05:00:00,
2013-02-14 00:10:00,63.5,61.1,29.95,South,183,1.0,13.0,92,0.00,,,0.00,Wunderground v.1.15,2013-02-14 05:10:00,
2013-02-14 00:20:00,63.6,61.2,29.95,South,183,1.0,1.0,92,0.00,,,0.00,Wunderground v.1.15,2013-02-14 05:20:00,
2013-02-14 00:30:00,63.5,61.1,29.95,South,183,0.0,13.0,92,0.00,,,0.00,Wunderground v.1.15,2013-02-14 05:30:00,
2013-02-14 00:40:00,63.5,61.1,29.95,South,183,2.0,2.0,92,0.00,,,0.00,Wunderground v.1.15,2013-02-14 05:40:00,
2013-02-14 00:50:00,63.5,61.1,29.95,South,183,2.0,13.0,92,0.00,,,0.00,Wunderground v.1.15,2013-02-14 05:50:00,
2013-02-14 01:00:00,63.5,61.1,29.95,South,182,2.0,13.0,92,0.00,,,0.00,Wunderground v.1.15,2013-02-14 06:00:00,
2013-02-14 01:10:00,63.5,61.1,29.96,South,178,4.0,4.0,92,0.00,,,0.00,Wunderground v.1.15,2013-02-14 06:10:00,
2013-02-14 01:20:00,63.4,61.0,29.95,South,176,2.0,2.0,92,0.00,,,0.00,Wunderground v.1.15,2013-02-14 06:20:00,
2013-02-14 01:30:00,63.1,60.7,29.96,South,177,2.0,13.0,92,0.00,,,0.00,Wunderground v.1.15,2013-02-14 06:30:00,
2013-02-14 01:40:00,63.1,60.7,29.95,South,177,3.0,3.0,92,0.00,,,0.00,Wunderground v.1.15,2013-02-14 06:40:00,
2013-02-14 01:50:00,63.2,60.5,29.95,South,177,2.0,13.0,91,0.00,,,0.00,Wunderground v.1.15,2013-02-14 06:50:00,
2013-02-14 02:00:00,63.0,60.3,29.93,South,173,3.0,3.0,91,0.00,,,0.00,Wunderground v.1.15,2013-02-14 07:00:00,
2013-02-14 02:10:00,63.0,60.3,29.94,South,169,2.0,13.0,91,0.00,,,0.00,Wunderground v.1.15,2013-02-14 07:10:00,
2013-02-14 02:20:00,63.0,60.3,29.94,South,169,2.0,13.0,91,0.00,,,0.00,Wunderground v.1.15,2013-02-14 07:20:00,
2013-02-14 02:30:00,62.9,60.2,29.93,SSE,155,4.0,4.0,91,0.00,,,0.00,Wunderground v.1.15,2013-02-14 07:30:00,
2013-02-14 02:40:00,62.6,59.9,29.93,South,172,3.0,13.0,91,0.00,,,0.00,Wunderground v.1.15,2013-02-14 07:40:00,
2013-02-14 02:50:00,62.4,59.7,29.93,South,172,2.0,2.0,91,0.00,,,0.00,Wunderground v.1.15,2013-02-14 07:50:00,
2013-02-14 03:00:00,62.3,59.3,29.93,South,173,2.0,13.0,90,0.00,,,0.00,Wunderground v.1.15,2013-02-14 08:00:00,
2013-02-14 03:10:00,62.3,59.3,29.93,South,173,2.0,13.0,90,0.00,,,0.00,Wunderground v.1.15,2013-02-14 08:10:00,
2013-02-14 03:20:00,62.3,59.0,29.93,South,173,1.0,13.0,89,0.00,,,0.00,Wunderground v.1.15,2013-02-14 08:20:00,
2013-02-14 08:00:00,61.4,58.4,29.98,WNW,294,3.0,5.0,90,0.00,,,0.01,Wunderground v.1.15,2013-02-14 13:00:00,
2013-02-14 08:10:00,61.5,58.2,29.99,WNW,300,3.0,3.0,89,0.00,,,0.01,Wunderground v.1.15,2013-02-14 13:10:00,
2013-02-14 08:20:00,61.8,58.2,29.99,WNW,300,2.0,2.0,88,0.00,,,0.01,Wunderground v.1.15,2013-02-14 13:20:00,
2013-02-14 08:30:00,62.3,58.7,29.99,WNW,300,2.0,2.0,88,0.00,,,0.01,Wunderground v.1.15,2013-02-14 13:30:00,
2013-02-14 08:40:00,62.4,58.8,30.00,WNW,300,1.0,2.0,88,0.00,,,0.01,Wunderground v.1.15,2013-02-14 13:40:00,
2013-02-14 08:50:00,62.9,59.0,30.00,NW,307,2.0,2.0,87,0.00,,,0.01,Wunderground v.1.15,2013-02-14 13:50:00,
2013-02-14 09:00:00,63.1,58.5,30.01,NNW,344,3.0,5.0,85,0.00,,,0.01,Wunderground v.1.15,2013-02-14 14:00:00,
2013-02-14 09:10:00,62.6,57.7,30.01,NW,318,5.0,6.0,84,0.00,,,0.01,Wunderground v.1.15,2013-02-14 14:10:00,
2013-02-14 09:20:00,61.9,57.0,30.03,NW,321,7.0,7.0,84,0.00,,,0.01,Wunderground v.1.15,2013-02-14 14:20:00,
2013-02-14 09:30:00,61.8,56.2,30.04,NNW,339,7.0,10.0,82,0.00,,,0.01,Wunderground v.1.15,2013-02-14 14:30:00,
2013-02-14 09:40:00,61.6,55.7,30.04,NW,318,5.0,5.0,81,0.00,,,0.01,Wunderground v.1.15,2013-02-14 14:40:00,
2013-02-14 09:50:00,61.8,56.2,30.03,North,350,5.0,5.0,82,0.00,,,0.01,Wunderground v.1.15,2013-02-14 14:50:00,
2013-02-14 10:00:00,62.5,56.2,30.03,NNW,341,5.0,5.0,80,0.00,,,0.01,Wunderground v.1.15,2013-02-14 15:00:00,
2013-02-14 10:10:00,63.1,56.5,30.04,NNW,330,3.0,5.0,79,0.00,,,0.01,Wunderground v.1.15,2013-02-14 15:10:00,
2013-02-14 10:20:00,62.9,55.9,30.03,NNW,332,5.0,7.0,78,0.00,,,0.01,Wunderground v.1.15,2013-02-14 15:20:00,
2013-02-14 10:30:00,62.7,55.7,30.04,NNW,331,6.0,6.0,78,0.00,,,0.01,Wunderground v.1.15,2013-02-14 15:30:00,
2013-02-14 10:40:00,62.8,56.2,30.06,West,277,6.0,7.0,79,0.00,,,0.01,Wunderground v.1.15,2013-02-14 15:40:00,
2013-02-14 10:50:00,62.5,56.6,30.06,NNW,327,5.0,5.0,81,0.00,,,0.01,Wunderground v.1.15,2013-02-14 15:50:00,
2013-02-14 11:00:00,62.1,56.2,30.05,NNW,346,6.0,6.0,81,0.00,,,0.01,Wunderground v.1.15,2013-02-14 16:00:00,
2013-02-14 11:10:00,61.9,56.3,30.05,North,355,5.0,6.0,82,0.00,,,0.01,Wunderground v.1.15,2013-02-14 16:10:00,
2013-02-14 11:20:00,62.0,56.8,30.06,NNW,334,7.0,8.0,83,0.00,,,0.01,Wunderground v.1.15,2013-02-14 16:20:00,
2013-02-14 11:30:00,61.9,56.3,30.05,NNW,334,8.0,8.0,82,0.00,,,0.01,Wunderground v.1.15,2013-02-14 16:30:00,
2013-02-14 11:40:00,61.8,56.2,30.04,NNW,341,7.0,7.0,82,0.00,,,0.01,Wunderground v.1.15,2013-02-14 16:40:00,
2013-02-14 11:50:00,61.9,55.7,30.04,NNW,343,7.0,7.0,80,0.00,,,0.01,Wunderground v.1.15,2013-02-14 16:50:00,
2013-02-14 12:00:00,61.9,56.0,30.03,North,9,6.0,6.0,81,0.00,,,0.01,Wunderground v.1.15,2013-02-14 17:00:00,
2013-02-14 12:10:00,62.0,55.8,30.02,North,5,6.0,6.0,80,0.00,,,0.01,Wunderground v.1.15,2013-02-14 17:10:00,
2013-02-14 12:20:00,62.5,55.9,30.01,NNE,32,3.0,5.0,79,0.00,,,0.01,Wunderground v.1.15,2013-02-14 17:20:00,
2013-02-14 12:30:00,63.0,56.4,30.00,North,360,3.0,3.0,79,0.00,,,0.01,Wunderground v.1.15,2013-02-14 17:30:00,
2013-02-14 12:40:00,63.3,55.6,30.00,East,84,3.0,5.0,76,0.00,,,0.01,Wunderground v.1.15,2013-02-14 17:40:00,
2013-02-14 12:50:00,63.6,55.9,29.99,East,84,1.0,1.0,76,0.00,,,0.01,Wunderground v.1.15,2013-02-14 17:50:00,
2013-02-14 13:00:00,63.8,55.7,29.99,ENE,74,1.0,5.0,75,0.00,,,0.01,Wunderground v.1.15,2013-02-14 18:00:00,
2013-02-14 13:10:00,63.9,56.2,30.00,WNW,293,2.0,5.0,76,0.00,,,0.01,Wunderground v.1.15,2013-02-14 18:10:00,
2013-02-14 13:20:00,63.6,56.3,30.00,WNW,302,4.0,4.0,77,0.00,,,0.01,Wunderground v.1.15,2013-02-14 18:20:00,
2013-02-14 13:30:00,63.7,56.4,29.98,WNW,285,2.0,5.0,77,0.00,,,0.01,Wunderground v.1.15,2013-02-14 18:30:00,
2013-02-14 13:40:00,63.1,56.1,29.99,WNW,287,4.0,5.0,78,0.00,,,0.01,Wunderground v.1.15,2013-02-14 18:40:00,
2013-02-14 13:50:00,62.8,56.5,29.99,WNW,287,2.0,2.0,80,0.00,,,0.01,Wunderground v.1.15,2013-02-14 18:50:00,
2013-02-14 14:00:00,62.6,56.7,29.98,SW,219,2.0,5.0,81,0.00,,,0.01,Wunderground v.1.15,2013-02-14 19:00:00,
2013-02-14 14:10:00,62.2,56.3,29.98,SW,221,1.0,1.0,81,0.00,,,0.01,Wunderground v.1.15,2013-02-14 19:10:00,
2013-02-14 14:20:00,62.0,56.4,29.97,SW,221,1.0,1.0,82,0.00,,,0.01,Wunderground v.1.15,2013-02-14 19:20:00,
2013-02-14 14:50:00,61.5,56.9,29.96,SW,221,1.0,1.0,85,0.00,,,0.01,Wunderground v.1.15,2013-02-14 19:50:00,
2013-02-14 15:00:00,61.4,57.2,29.97,NW,319,3.0,4.0,86,0.00,,,0.01,Wunderground v.1.15,2013-02-14 20:00:00,
2013-02-14 15:10:00,61.3,57.4,29.96,NW,321,2.0,2.0,87,0.00,,,0.01,Wunderground v.1.15,2013-02-14 20:10:00,
2013-02-14 15:20:00,60.8,57.2,29.96,NW,321,3.0,5.0,88,0.00,,,0.01,Wunderground v.1.15,2013-02-14 20:20:00,
2013-02-14 15:30:00,60.5,56.9,29.93,NNE,22,4.0,4.0,88,0.00,,,0.01,Wunderground v.1.15,2013-02-14 20:30:00,
2013-02-14 15:40:00,60.4,57.1,29.95,NE,34,2.0,2.0,89,0.00,,,0.01,Wunderground v.1.15,2013-02-14 20:40:00,
2013-02-14 15:50:00,60.3,57.0,29.97,NNE,28,1.0,3.0,89,0.00,,,0.01,Wunderground v.1.15,2013-02-14 20:50:00,
2013-02-14 16:00:00,60.1,57.2,29.98,NNW,327,6.0,6.0,90,0.00,,,0.01,Wunderground v.1.15,2013-02-14 21:00:00,
2013-02-14 16:10:00,59.9,57.3,29.98,North,349,5.0,5.0,91,0.00,,,0.01,Wunderground v.1.15,2013-02-14 21:10:00,
2013-02-14 16:20:00,59.3,56.7,29.97,North,9,5.0,5.0,91,0.00,,,0.01,Wunderground v.1.15,2013-02-14 21:20:00,
2013-02-14 16:30:00,59.0,56.7,29.98,NNW,348,4.0,4.0,92,0.00,,,0.01,Wunderground v.1.15,2013-02-14 21:30:00,
2013-02-14 16:40:00,58.4,56.1,30.00,NW,323,5.0,7.0,92,0.00,,,0.01,Wunderground v.1.15,2013-02-14 21:40:00,
2013-02-14 16:50:00,57.8,55.5,30.00,NNW,342,8.0,8.0,92,0.00,,,0.01,Wunderground v.1.15,2013-02-14 21:50:00,
2013-02-14 17:00:00,57.4,55.1,30.01,North,5,4.0,4.0,92,0.00,,,0.01,Wunderground v.1.15,2013-02-14 22:00:00,
2013-02-14 17:10:00,56.8,54.8,30.02,NW,317,7.0,7.0,93,0.00,,,0.01,Wunderground v.1.15,2013-02-14 22:10:00,
2013-02-14 17:20:00,56.4,54.4,30.02,North,5,9.0,9.0,93,0.00,,,0.01,Wunderground v.1.15,2013-02-14 22:20:00,
2013-02-14 17:30:00,56.3,54.3,30.02,North,349,4.0,5.0,93,0.00,,,0.01,Wunderground v.1.15,2013-02-14 22:30:00,
2013-02-14 17:40:00,56.0,54.0,30.02,North,355,4.0,4.0,93,0.00,,,0.01,Wunderground v.1.15,2013-02-14 22:40:00,
2013-02-14 17:50:00,55.2,53.2,30.02,North,10,5.0,5.0,93,0.00,,,0.01,Wunderground v.1.15,2013-02-14 22:50:00,
2013-02-14 18:00:00,55.2,53.2,29.99,NE,52,4.0,6.0,93,0.00,,,0.01,Wunderground v.1.15,2013-02-14 23:00:00,
2013-02-14 18:10:00,55.0,53.0,29.98,NE,51,4.0,4.0,93,0.00,,,0.01,Wunderground v.1.15,2013-02-14 23:10:00,
2013-02-14 18:20:00,54.8,52.8,29.98,ENE,59,4.0,4.0,93,0.00,,,0.01,Wunderground v.1.15,2013-02-14 23:20:00,
2013-02-14 18:30:00,54.6,52.6,29.99,East,85,3.0,6.0,93,0.00,,,0.01,Wunderground v.1.15,2013-02-14 23:30:00,
2013-02-14 18:40:00,54.5,52.5,30.01,NNW,343,3.0,4.0,93,0.00,,,0.01,Wunderground v.1.15,2013-02-14 23:40:00,
2013-02-14 18:50:00,54.8,53.1,30.03,NNW,342,5.0,11.0,94,0.00,,,0.01,Wunderground v.1.15,2013-02-14 23:50:00,
2013-02-14 19:00:00,54.7,53.0,30.03,NNW,333,8.0,8.0,94,0.00,,,0.01,Wunderground v.1.15,2013-02-15 00:00:00,
2013-02-14 19:10:00,54.8,53.1,30.03,NNW,329,7.0,7.0,94,0.00,,,0.01,Wunderground v.1.15,2013-02-15 00:10:00,
2013-02-14 19:20:00,54.5,52.5,30.02,NNW,346,7.0,7.0,93,0.00,,,0.01,Wunderground v.1.15,2013-02-15 00:20:00,
2013-02-14 19:30:00,54.3,52.6,30.02,NNE,14,4.0,4.0,94,0.00,,,0.01,Wunderground v.1.15,2013-02-15 00:30:00,
2013-02-14 19:40:00,54.2,52.5,30.02,East,84,3.0,5.0,94,0.00,,,0.01,Wunderground v.1.15,2013-02-15 00:40:00,
2013-02-14 19:50:00,54.3,52.6,30.00,ESE,119,5.0,5.0,94,0.00,,,0.01,Wunderground v.1.15,2013-02-15 00:50:00,
2013-02-14 20:00:00,54.2,52.5,30.01,ENE,68,4.0,4.0,94,0.00,,,0.01,Wunderground v.1.15,2013-02-15 01:00:00,
2013-02-14 20:10:00,54.3,52.6,30.01,ESE,109,4.0,5.0,94,0.00,,,0.01,Wunderground v.1.15,2013-02-15 01:10:00,
2013-02-14 20:20:00,54.2,52.5,30.01,East,86,3.0,3.0,94,0.00,,,0.01,Wunderground v.1.15,2013-02-15 01:20:00,
2013-02-14 20:30:00,54.3,52.6,30.02,East,80,2.0,3.0,94,0.00,,,0.01,Wunderground v.1.15,2013-02-15 01:30:00,
2013-02-14 20:40:00,54.4,52.7,30.01,East,80,1.0,3.0,94,0.00,,,0.01,Wunderground v.1.15,2013-02-15 01:40:00,
2013-02-14 20:50:00,54.4,52.7,30.00,ESE,107,3.0,3.0,94,0.00,,,0.01,Wunderground v.1.15,2013-02-15 01:50:00,
2013-02-14 21:00:00,54.4,52.7,30.02,ESE,109,1.0,3.0,94,0.00,,,0.01,Wunderground v.1.15,2013-02-15 02:00:00,
2013-02-14 21:10:00,54.4,53.0,30.02,ESE,119,1.0,1.0,95,0.00,,,0.01,Wunderground v.1.15,2013-02-15 02:10:00,
2013-02-14 21:20:00,54.4,53.0,30.00,East,87,1.0,3.0,95,0.00,,,0.01,Wunderground v.1.15,2013-02-15 02:20:00,
2013-02-14 21:30:00,54.5,52.8,29.98,ESE,110,3.0,3.0,94,0.00,,,0.01,Wunderground v.1.15,2013-02-15 02:30:00,
2013-02-14 21:40:00,54.5,53.1,30.00,ENE,67,1.0,3.0,95,0.00,,,0.01,Wunderground v.1.15,2013-02-15 02:40:00,
2013-02-14 21:50:00,54.6,53.2,30.01,North,355,4.0,4.0,95,0.00,,,0.01,Wunderground v.1.15,2013-02-15 02:50:00,
2013-02-14 22:00:00,54.4,53.0,30.03,North,355,4.0,4.0,95,0.00,,,0.01,Wunderground v.1.15,2013-02-15 03:00:00,
2013-02-14 22:10:00,54.5,53.1,30.03,NNW,327,5.0,5.0,95,0.00,,,0.01,Wunderground v.1.15,2013-02-15 03:10:00,
2013-02-14 22:20:00,54.4,53.0,30.03,NNW,328,4.0,4.0,95,0.00,,,0.01,Wunderground v.1.15,2013-02-15 03:20:00,
2013-02-14 22:30:00,54.4,53.0,30.04,NNW,329,4.0,4.0,95,0.00,,,0.01,Wunderground v.1.15,2013-02-15 03:30:00,
2013-02-14 22:40:00,54.3,52.9,30.04,NNW,330,4.0,4.0,95,0.00,,,0.01,Wunderground v.1.15,2013-02-15 03:40:00,
2013-02-14 22:50:00,54.4,53.0,30.05,NNW,333,5.0,10.0,95,0.00,,,0.01,Wunderground v.1.15,2013-02-15 03:50:00,
2013-02-14 23:00:00,54.0,52.3,30.02,North,355,5.0,5.0,94,0.00,,,0.01,Wunderground v.1.15,2013-02-15 04:00:00,
2013-02-14 23:10:00,53.9,52.5,30.02,North,5,3.0,3.0,95,0.00,,,0.01,Wunderground v.1.15,2013-02-15 04:10:00,
2013-02-14 23:20:00,53.9,52.5,30.01,NNE,17,2.0,5.0,95,0.00,,,0.01,Wunderground v.1.15,2013-02-15 04:20:00,
2013-02-14 23:30:00,53.9,52.5,30.02,North,5,4.0,6.0,95,0.00,,,0.01,Wunderground v.1.15,2013-02-15 04:30:00,
2013-02-14 23:40:00,53.7,52.3,30.02,NNW,342,5.0,6.0,95,0.00,,,0.01,Wunderground v.1.15,2013-02-15 04:40:00,
2013-02-14 23:50:00,53.7,52.3,30.03,North,349,7.0,7.0,95,0.00,,,0.01,Wunderground v.1.15,2013-02-15 04:50:00,